Notices

What's New in latest Release from April 7th, 2021:

- Updated Glossary, including Speed of Maximum Gust, and Total Hourly Precipitation

- Updated national and regional climate services offices contacts and prices information

- Addition of station inventory lists for 1981-2010, 1971-2000, and 1961-1990 Normals.

If you haven't already, please take our survey and provide feedback about our website: https://eccc.sondage-survey.ca/f/LanguageSelection.aspx?s=442ca660-fcf1-47c0-95a9-59707d6fd709

Hourly Data Report for January 29, 2021

OTTAWA INTL A
ONTARIO
Current Station Operator: NAVCAN

45°19'00.000" N
75°40'00.000" W
114.90 m
6106001
71628
YOW

Download Data

Hourly Data (January 2021)
Hourly Data Report for January 29, 2021
TIME
LST
Temp Definition
°C
Dew Point Definition
°C
Rel Hum Definition
%
Precip. Amount Definition
mm

Wind Dir Definition
10's deg

Wind Spd Definition
km/h
Visibility Definition
km
Stn Press Definition
kPa
Hmdx Definition


Wind Chill Definition


Weather Definition


00:00 -17.9 -22.4 68   31 28 24.1 100.94   -29 LegendNANA
01:00 -18.2 -22.7 68   30 27 24.1 100.89   -30 Mostly Cloudy
02:00 -18.5 -22.8 69   30 24 24.1 100.88   -29 LegendNANA
03:00 -18.5 -22.2 73   29 25 16.1 100.89   -30 Snow
04:00 -19.1 -22.7 74   29 17 24.1 100.91   -29 Mostly Cloudy
05:00 -18.8 -22.6 72   29 21 24.1 100.92   -29 LegendNANA
06:00 -19.4 -23.0 73   29 23 24.1 100.95   -30 LegendNANA
07:00 -19.5 -23.1 74   29 18 24.1 100.98   -29 Mainly Clear
08:00 -19.4 -23.1 73   29 20 24.1 101.02   -30 LegendNANA
09:00 -18.9 -22.8 72   29 23 24.1 101.01   -30 LegendNANA
10:00 -17.4 -21.9 68   30 22 24.1 101.01   -28 Mainly Clear
11:00 -15.9 -21.1 65   29 19 24.1 101.01   -25 LegendNANA
12:00 -14.6 -20.5 61   29 21 24.1 100.95   -24 LegendNANA
13:00 -13.3 -19.8 58   29 21 24.1 100.91   -22 Clear
14:00 -12.2 -19.4 56   28 20 24.1 100.90   -21 LegendNANA
15:00 -11.8 -19.1 55   30 22 24.1 100.94   -21 LegendNANA
16:00 -11.8 -18.2 60   28 20 24.1 100.98   -20 Mostly Cloudy
17:00 -12.7 -18.5 62   30 20 24.1 101.02   -21 LegendNANA
18:00 -12.5 -17.3 67   30 19 24.1 101.09   -21 LegendNANA
19:00 -14.5 -17.7 77   27 12 24.1 101.12   -21 Mainly Clear
20:00 -14.9 -18.8 72   29 13 24.1 101.14   -22 LegendNANA
21:00 -16.2 -19.1 79   28 14 24.1 101.16   -24 LegendNANA
22:00 -16.2 -18.8 81   29 13 24.1 101.14   -24 Clear
23:00 -17.5 -19.6 85   28 8 24.1 101.14   -23 LegendNANA

Notes on Data Quality.

Legend

  • E = Estimated
  • M = Missing
  • NA = Not Available*
  • [empty] = Indicates an unobserved value
Date modified: